Location: Newark
(3.0500°N, 36.0167°E)
Time: 15:22:54
(UTC+00:00)

Tiros 1 - Visible Passes

Search period start: 23 August 2019 00:00
Search period end: 02 September 2019 00:00
Orbit: 631 x 664 km, 48.4° (Epoch: 23 August)

Date Brightness Start Highest point End Pass type
(mag) Time Alt. Az. Time Alt. Az. Time Alt. Az.
24 Aug 9.4 17:44:46 10° SW 17:45:44 16° SW 17:45:44 16° SW visible
25 Aug 8.3 16:29:46 10° S 16:33:26 23° SE 16:34:45 20° ESE visible
25 Aug 9.9 18:11:33 10° WSW 18:12:32 15° W 18:12:32 15° W visible
26 Aug 6.9 16:54:47 10° SW 16:59:26 78° SE 17:01:47 29° NE visible
27 Aug 8.9 17:21:23 10° WSW 17:25:26 30° NW 17:28:57 13° N visible
28 Aug 7.1 16:04:48 10° SSW 16:09:27 68° SE 16:14:02 10° NE visible
29 Aug 10.0 02:35:49 10° N 02:38:51 17° NE 02:41:56 10° E visible
29 Aug 8.8 16:31:14 10° WSW 16:35:26 34° NW 16:39:38 10° NNE visible
30 Aug 8.0 03:00:20 10° NNW 03:04:55 54° NE 03:09:35 10° SE visible
30 Aug 10.3 17:00:34 10° WNW 17:01:34 11° NW 17:02:34 10° NW visible
31 Aug 10.0 01:46:10 10° NNE 01:48:51 15° NE 01:51:32 10° E visible
01 Sep 8.1 02:10:25 10° NNW 02:14:55 47° NE 02:19:29 10° SE visible
01 Sep 10.2 16:09:42 10° WNW 16:11:33 12° NW 16:13:24 10° NNW visible
